| time (UTC) | temp F | wind direction | speed MPH | gust MPH | rain 1hr in | rain 24hr in | rain mn in | humidity % | barometer mb |
| 20260506113049 | 50 | 355 | 3.0 | 8.0 | 0.00 | 0.78 | 0.24 | 97 | 1011.2 |
| 20260506113035 | 50 | 19 | 2.0 | 9.0 | 0.00 | 0.78 | 0.26 | 97 | 1012.8 |
| 20260506111546 | 50 | 27 | 2.0 | 6.0 | 0.00 | 0.78 | 0.24 | 97 | 1010.6 |
| 20260506110047 | 50 | 38 | 2.0 | 5.0 | 0.00 | 0.78 | 0.24 | 97 | 1010.8 |
| 20260506110023 | 50 | 47 | 2.0 | 9.0 | 0.00 | 0.78 | 0.26 | 97 | 1012.3 |
| 20260506104548 | 50 | 39 | 2.0 | 5.0 | 0.02 | 0.78 | 0.24 | 96 | 1010.7 |
| 20260506103044 | 50 | 64 | 1.0 | 5.0 | 0.02 | 0.78 | 0.24 | 96 | 1010.5 |
| 20260506103021 | 50 | 28 | 3.0 | 13.0 | 0.02 | 0.78 | 0.26 | 96 | 1012.1 |
| 20260506101543 | 50 | 27 | 3.0 | 8.0 | 0.02 | 0.78 | 0.24 | 96 | 1010.5 |
| 20260506100043 | 50 | 35 | 2.0 | 9.0 | 0.02 | 0.78 | 0.24 | 96 | 1010.1 |
| 20260506100017 | 50 | 14 | 4.0 | 13.0 | 0.02 | 0.78 | 0.26 | 96 | 1011.8 |
| 20260506094540 | 50 | 349 | 4.0 | 9.0 | 0.00 | 0.76 | 0.22 | 96 | 1010.1 |
| 20260506093041 | 50 | 340 | 5.0 | 9.0 | 0.00 | 0.76 | 0.22 | 96 | 1009.6 |
| 20260506093015 | 50 | 36 | 5.0 | 14.0 | 0.00 | 0.76 | 0.24 | 96 | 1011.2 |
| 20260506091536 | 50 | 32 | 4.0 | 10.0 | 0.00 | 0.76 | 0.22 | 96 | 1008.9 |
| 20260506090057 | 50 | 39 | 7.0 | 15.0 | 0.00 | 0.76 | 0.24 | 96 | 1010.7 |
| 20260506090039 | 50 | 34 | 6.0 | 11.0 | 0.00 | 0.76 | 0.22 | 96 | 1009.0 |
| 20260506084537 | 50 | 57 | 8.0 | 13.0 | 0.01 | 0.76 | 0.22 | 96 | 1009.1 |
| 20260506083032 | 50 | 15 | 7.0 | 13.0 | 0.02 | 0.76 | 0.22 | 96 | 1009.3 |
| 20260506083017 | 50 | 36 | 8.0 | 15.0 | 0.02 | 0.76 | 0.24 | 96 | 1011.0 |
| 20260506081530 | 50 | 44 | 7.0 | 14.0 | 0.06 | 0.76 | 0.22 | 97 | 1009.1 |
| 20260506073024 | 51 | 43 | 7.0 | 10.0 | 0.11 | 0.74 | 0.20 | 97 | 1008.6 |
| 20260506073016 | 51 | 351 | 5.0 | 13.0 | 0.11 | 0.74 | 0.22 | 97 | 1010.2 |
| 20260506071522 | 51 | 330 | 5.0 | 10.0 | 0.07 | 0.70 | 0.16 | 97 | 1008.9 |
| 20260506061521 | 52 | 360 | 6.0 | 12.0 | 0.06 | 0.63 | 0.09 | 96 | 1007.6 |
| 20260506044553 | 57 | 349 | 6.0 | 14.0 | 0.15 | 0.46 | 0.46 | 93 | 1007.1 |
| 20260506043050 | 63 | 323 | 10.0 | 18.0 | 0.08 | 0.39 | 0.39 | 95 | 1006.5 |
| 20260506043016 | 63 | 295 | 4.0 | 19.0 | 0.08 | 0.39 | 0.39 | 95 | 1008.3 |
| 20260506041554 | 64 | 175 | 3.0 | 10.0 | 0.05 | 0.36 | 0.36 | 96 | 1006.1 |
| 20260506040116 | 64 | 195 | 5.0 | 12.0 | 0.00 | 0.31 | 0.31 | 96 | 1007.2 |
| 20260506040048 | 64 | 226 | 4.0 | 10.0 | 0.00 | 0.31 | 0.31 | 96 | 1005.3 |
| 20260506034553 | 64 | 205 | 6.0 | 12.0 | 0.00 | 0.31 | 0.31 | 96 | 1005.4 |
| 20260506033053 | 63 | 207 | 5.0 | 11.0 | 0.00 | 0.31 | 0.31 | 97 | 1005.5 |
| 20260506033021 | 63 | 196 | 5.0 | 13.0 | 0.00 | 0.31 | 0.31 | 97 | 1007.4 |
| 20260506031546 | 63 | 224 | 6.0 | 9.0 | 0.00 | 0.31 | 0.31 | 97 | 1005.7 |
| 20260506030056 | 63 | 181 | 3.0 | 11.0 | 0.00 | 0.31 | 0.31 | 97 | 1005.4 |
| 20260506030016 | 63 | 188 | 4.0 | 13.0 | 0.00 | 0.31 | 0.31 | 97 | 1007.3 |
| 20260506024550 | 63 | 173 | 4.0 | 9.0 | 0.01 | 0.31 | 0.31 | 97 | 1005.5 |
| 20260506023044 | 63 | 200 | 4.0 | 8.0 | 0.01 | 0.31 | 0.31 | 97 | 1005.6 |
| 20260506023016 | 63 | 185 | 3.0 | 9.0 | 0.01 | 0.31 | 0.31 | 97 | 1007.6 |
| 20260506021552 | 63 | 197 | 3.0 | 7.0 | 0.01 | 0.31 | 0.31 | 97 | 1005.7 |
| 20260506020044 | 62 | 204 | 3.0 | 7.0 | 0.01 | 0.31 | 0.31 | 97 | 1005.4 |
| 20260506020016 | 62 | 186 | 3.0 | 15.0 | 0.01 | 0.31 | 0.31 | 97 | 1007.4 |
| 20260506014542 | 62 | 185 | 3.0 | 8.0 | 0.01 | 0.30 | 0.30 | 97 | 1005.5 |
| 20260506013045 | 62 | 169 | 3.0 | 8.0 | 0.01 | 0.30 | 0.30 | 97 | 1005.4 |
| 20260506013016 | 62 | 182 | 4.0 | 15.0 | 0.01 | 0.30 | 0.30 | 97 | 1007.5 |
| 20260506011604 | 62 | 178 | 4.0 | 12.0 | 0.01 | 0.30 | 0.30 | 97 | 1005.6 |
| 20260506010038 | 62 | 172 | 5.0 | 10.0 | 0.01 | 0.30 | 0.30 | 97 | 1005.9 |
| 20260506010016 | 62 | 192 | 5.0 | 12.0 | 0.01 | 0.30 | 0.30 | 97 | 1007.9 |
| 20260506004543 | 62 | 177 | 5.0 | 11.0 | 0.00 | 0.28 | 0.28 | 97 | 1006.0 |
| 20260506003038 | 62 | 229 | 5.0 | 10.0 | 0.01 | 0.28 | 0.28 | 97 | 1005.8 |
| 20260506003016 | 62 | 187 | 4.0 | 12.0 | 0.01 | 0.29 | 0.28 | 97 | 1007.8 |
| 20260506001536 | 62 | 196 | 6.0 | 12.0 | 0.01 | 0.28 | 0.28 | 97 | 1005.8 |
| 20260506000033 | 62 | 195 | 6.0 | 10.0 | 0.01 | 0.28 | 0.28 | 97 | 1006.3 |
| 20260506000021 | 62 | 189 | 5.0 | 13.0 | 0.01 | 0.29 | 0.28 | 97 | 1008.2 |
| 20260505234533 | 62 | 172 | 5.0 | 12.0 | 0.01 | 0.28 | 0.28 | 97 | 1006.2 |
| 20260505233034 | 62 | 165 | 4.0 | 12.0 | 0.00 | 0.28 | 0.28 | 97 | 1006.3 |
| 20260505233016 | 62 | 186 | 4.0 | 13.0 | 0.00 | 0.28 | 0.28 | 97 | 1008.1 |
| 20260505231538 | 62 | 198 | 3.0 | 13.0 | 0.01 | 0.28 | 0.28 | 97 | 1006.4 |
| 20260505230036 | 62 | 184 | 5.0 | 13.0 | 0.01 | 0.28 | 0.28 | 96 | 1008.5 |
| 20260505230033 | 62 | 178 | 5.0 | 10.0 | 0.01 | 0.28 | 0.28 | 96 | 1006.6 |
| 20260505224530 | 62 | 193 | 5.0 | 11.0 | 0.01 | 0.28 | 0.28 | 96 | 1006.8 |
| 20260505223032 | 62 | 167 | 3.0 | 10.0 | 0.02 | 0.28 | 0.28 | 96 | 1006.7 |
| 20260505223015 | 62 | 182 | 4.0 | 15.0 | 0.02 | 0.28 | 0.28 | 96 | 1008.7 |
| 20260505221529 | 62 | 152 | 4.0 | 7.0 | 0.05 | 0.27 | 0.27 | 95 | 1006.8 |
| 20260505220045 | 62 | 181 | 6.0 | 10.0 | 0.07 | 0.27 | 0.27 | 94 | 1006.9 |
| 20260505220015 | 62 | 186 | 5.0 | 18.0 | 0.06 | 0.27 | 0.27 | 94 | 1009.0 |
| 20260505214532 | 63 | 196 | 3.0 | 10.0 | 0.06 | 0.26 | 0.26 | 93 | 1006.9 |
| 20260505213029 | 64 | 184 | 6.0 | 13.0 | 0.06 | 0.26 | 0.26 | 92 | 1006.9 |
| 20260505213016 | 64 | 199 | 7.0 | 18.0 | 0.06 | 0.26 | 0.26 | 92 | 1009.0 |
| 20260505211527 | 65 | 211 | 9.0 | 17.0 | 0.02 | 0.22 | 0.22 | 89 | 1006.7 |
| 20260505210025 | 67 | 183 | 7.0 | 16.0 | 0.00 | 0.20 | 0.20 | 83 | 1006.6 |
| 20260505210015 | 68 | 194 | 7.0 | 17.0 | 0.00 | 0.20 | 0.20 | 83 | 1008.7 |
| 20260505204525 | 68 | 195 | 6.0 | 17.0 | 0.00 | 0.20 | 0.20 | 82 | 1006.3 |
| 20260505203021 | 68 | 225 | 7.0 | 15.0 | 0.00 | 0.20 | 0.20 | 83 | 1006.5 |
| 20260505201519 | 68 | 186 | 7.0 | 15.0 | 0.00 | 0.20 | 0.20 | 84 | 1006.8 |
| 20260505200018 | 68 | 186 | 4.0 | 17.0 | 0.01 | 0.20 | 0.20 | 85 | 1006.9 |
| 20260505200015 | 68 | 197 | 9.0 | 25.0 | 0.01 | 0.20 | 0.20 | 85 | 1009.2 |
| 20260505194521 | 68 | 167 | 8.0 | 21.0 | 0.01 | 0.20 | 0.20 | 84 | 1006.9 |
| 20260505193025 | 68 | 184 | 8.0 | 23.0 | 0.01 | 0.20 | 0.20 | 84 | 1006.8 |
| 20260505193015 | 68 | 190 | 10.0 | 25.0 | 0.01 | 0.20 | 0.20 | 84 | 1009.0 |
| 20260505191514 | 67 | 213 | 12.0 | 24.0 | 0.01 | 0.20 | 0.20 | 86 | 1007.0 |
| 20260505190015 | 66 | 191 | 7.0 | 19.0 | 0.00 | 0.19 | 0.19 | 89 | 1009.5 |
| 20260505190009 | 66 | 150 | 5.0 | 15.0 | 0.00 | 0.19 | 0.19 | 89 | 1007.5 |
| 20260505184508 | 65 | 198 | 10.0 | 15.0 | 0.00 | 0.19 | 0.19 | 88 | 1007.7 |
| 20260505183035 | 65 | 191 | 7.0 | 19.0 | 0.00 | 0.19 | 0.19 | 89 | 1009.9 |
| 20260505183007 | 65 | 197 | 8.0 | 19.0 | 0.00 | 0.19 | 0.19 | 89 | 1007.9 |
| 20260505181507 | 66 | 210 | 6.0 | 13.0 | 0.00 | 0.19 | 0.19 | 90 | 1008.2 |
| 20260505180015 | 65 | 196 | 6.0 | 16.0 | 0.00 | 0.19 | 0.19 | 91 | 1010.7 |
| 20260505180006 | 65 | 172 | 5.0 | 12.0 | 0.00 | 0.19 | 0.19 | 91 | 1008.6 |
| 20260505174505 | 65 | 226 | 5.0 | 13.0 | 0.00 | 0.19 | 0.19 | 91 | 1008.6 |
| 20260505173015 | 64 | 193 | 4.0 | 12.0 | 0.00 | 0.19 | 0.19 | 95 | 1010.8 |
| 20260505173006 | 64 | 236 | 4.0 | 12.0 | 0.00 | 0.19 | 0.19 | 95 | 1008.7 |
| 20260505171503 | 61 | 193 | 2.0 | 10.0 | 0.00 | 0.19 | 0.19 | 95 | 1009.1 |
| 20260505170100 | 60 | 160 | 3.0 | 9.0 | 0.00 | 0.19 | 0.19 | 94 | 1009.3 |
| 20260505170020 | 60 | 191 | 3.0 | 10.0 | 0.00 | 0.19 | 0.19 | 94 | 1011.3 |
| 20260505164604 | 60 | 187 | 4.0 | 10.0 | 0.00 | 0.19 | 0.19 | 94 | 1009.2 |
| 20260505163056 | 60 | 216 | 3.0 | 7.0 | 0.00 | 0.19 | 0.19 | 95 | 1009.0 |
| 20260505163015 | 60 | 190 | 3.0 | 12.0 | 0.00 | 0.19 | 0.19 | 95 | 1011.1 |
| 20260505161559 | 60 | 172 | 3.0 | 8.0 | 0.01 | 0.19 | 0.19 | 94 | 1009.0 |
| 20260505153106 | 59 | 157 | 4.0 | 8.0 | 0.13 | 0.19 | 0.19 | 94 | 1008.9 |
| 20260505153015 | 59 | 155 | 3.0 | 9.0 | 0.14 | 0.19 | 0.19 | 94 | 1011.1 |
| 20260505151548 | 59 | 181 | 2.0 | 7.0 | 0.17 | 0.18 | 0.18 | 93 | 1009.2 |
| 20260505124535 | 60 | 182 | 3.0 | 8.0 | 0.00 | 0.00 | 0.00 | 79 | 1008.9 |
| 20260505123024 | 60 | 176 | 4.0 | 10.0 | 0.00 | 0.00 | 0.00 | 79 | 1008.7 |
| 20260505123017 | 60 | 186 | 4.0 | 11.0 | 0.00 | 0.00 | 0.00 | 79 | 1010.9 |
| 20260505121523 | 60 | 189 | 3.0 | 7.0 | 0.00 | 0.00 | 0.00 | 79 | 1008.6 |
| 20260505120025 | 60 | 186 | 3.0 | 8.0 | 0.00 | 0.00 | 0.00 | 79 | 1008.5 |
| 20260505120017 | 60 | 180 | 3.0 | 9.0 | 0.00 | 0.00 | 0.00 | 79 | 1010.7 |
| 20260505114520 | 59 | 184 | 3.0 | 7.0 | 0.00 | 0.00 | 0.00 | 79 | 1008.3 |